Location: Caltech
(34.1382°N, 118.1253°W)
Time: 22:34:13
(UTC-07:00)

Iridium 94 - Visible Passes

Search period start: 31 May 2016 00:00
Search period end: 10 June 2016 00:00
Orbit: 776 x 779 km, 86.4° (Epoch: 31 May)

Date Brightness Start Highest point End Pass type
(mag) Time Alt. Az. Time Alt. Az. Time Alt. Az.
31 May 7.2 00:26:42 10° NNW 00:29:53 27° WNW 00:29:53 27° WNW visible
31 May 7.7 22:14:48 10° NE 22:16:04 12° ENE 22:16:04 12° ENE visible
31 May 6.4 23:52:44 10° N 23:56:32 46° NNW 23:56:32 46° NNW visible
01 Jun 6.1 23:19:11 10° N 23:23:12 51° NNE 23:23:12 51° NNE visible
02 Jun 8.1 01:03:19 10° WNW 01:03:41 10° WNW 01:03:41 10° WNW visible
02 Jun 6.6 22:46:02 10° NNE 22:49:53 32° ENE 22:49:53 32° ENE visible
03 Jun 7.5 00:27:20 10° NW 00:30:22 21° WNW 00:30:22 21° WNW visible
03 Jun 7.2 22:13:29 10° NE 22:16:34 18° ENE 22:16:34 18° ENE visible
03 Jun 6.6 23:53:01 10° NNW 23:57:02 38° WNW 23:57:02 38° WNW visible
04 Jun 5.8 23:19:14 10° N 23:23:44 66° NNW 23:23:44 66° NNW visible
05 Jun 5.9 22:45:50 10° N 22:50:26 50° ENE 22:50:26 50° ENE visible
06 Jun 7.8 00:28:24 10° NW 00:30:55 14° WNW 00:30:55 14° WNW visible
06 Jun 6.7 22:12:53 10° NNE 22:17:08 27° E 22:17:08 27° E visible
06 Jun 7.1 23:53:30 10° NNW 23:57:37 27° W 23:57:37 27° W visible
07 Jun 7.4 21:40:49 10° NE 21:43:29 14° ENE 21:43:51 14° E visible
07 Jun 6.0 23:19:25 10° NNW 23:24:20 53° W 23:24:20 53° W visible
08 Jun 5.4 22:45:48 10° N 22:51:02 78° E 22:51:03 78° E visible
09 Jun 6.1 22:12:33 10° NNE 22:17:26 40° E 22:17:47 39° E visible
